Preisvergleich
Suchen Sie bei den großen Preisvergleich Portalen gleichzeitig! 


Sitemap1

16.7.2024 2:00

In den Sitemaps finden Sie im Meta-Preisvergleich häufig gefragte Suchworte sortiert nach der Anzahl der Anfragen.

Anfragen Suchwort Ergebnisse Datum Quellen
50514kaminofen11542024-07-03 00:07:0221
36156luftbett12822024-07-16 00:07:0121
12859massagesessel11252024-07-11 00:07:0121
11278Notebook12292024-07-06 00:07:0121
10384tft monitor 172322024-07-07 00:07:0121
9955rasierer13812024-07-16 00:07:0121
8388milchaufschäumer13702024-07-16 00:07:0121
8147fritzbox 74901282024-06-19 00:07:0121
7892nintendo switch14102024-07-14 00:07:0121
7840iphone13392024-07-08 00:07:0121
7649gasgrill11852024-06-27 00:07:0120
7486hochdruckreiniger11342024-07-14 00:07:0121
7301garagentorantrieb7622024-06-20 00:07:0121
7111hauswasserwerk12572024-06-12 00:07:0121
6674thermomix7922024-07-13 00:07:0221
6463kühlschrank13082024-07-03 00:07:0221
6387almased3882024-07-14 00:07:0121
6269wasserkocher13752024-06-17 00:07:0121
6222waschmaschine14072024-06-26 00:07:0121
6218senseo10102024-07-13 00:07:0221
5975samsung galaxy s52892024-07-04 00:07:0121
5538laptop11912024-07-10 00:07:0121
5286kaffeevollautomat12552024-07-08 00:07:0121
5273fritzbox 75901192024-07-16 00:07:0121
4711mikrowelle14582024-07-03 00:07:0221
4681externe festplatte13382024-06-24 00:07:0121
4548iphone 3gs1602024-06-11 00:07:0121
4545fernseher12242024-06-18 00:07:0121
4525digitalkamera9882024-06-18 00:07:0121
4522forstseilwinde2342024-07-14 00:07:0121
4458geschirrspüler10972024-06-15 00:07:0120
4105luftentfeuchter13012024-06-25 00:07:0121
4100trampolin12942024-07-16 00:07:0121
4077corratec5332024-07-07 00:07:0121
3986fischertechnik10092024-07-01 00:07:0121
3955macbook13632024-06-18 00:07:0121
3764macbook pro13032024-06-19 00:07:0121
3741rasenmäher12802024-06-20 00:07:0121
3690kondenstrockner6622024-06-13 00:07:0221
3690sony alpha 60002712024-06-25 00:07:0121
3685nikon d70002232024-07-12 00:07:0121
3682handy11102024-06-22 00:07:0121
3655induktionskochfeld11242024-06-20 00:07:0121
3641sodastream11242024-07-10 00:07:0121
3586mac mini10932024-07-04 00:07:0121
3527wärmepumpe13502024-07-09 00:07:0121
3479internetradio11592024-06-22 00:07:0121
3455hollywoodschaukel12072024-06-27 00:07:0121
3374bankirai1452024-07-16 00:07:0121
3269sodastream crystal3702024-06-12 00:07:0131
3250ei6503472024-07-16 00:07:0121
3232tablet13962024-06-26 00:07:0121
3189gewächshaus13982024-06-25 00:07:0121
3114waschtrockner11932024-07-08 00:07:0121
3090fritz dect 2002612024-07-06 00:07:0121
3058gartenhaus10742024-07-10 00:07:0121
3049miele waschmaschine7622024-06-18 00:07:0121
2985tischkreissäge6902024-07-04 00:07:0140
2972Dyson11092024-07-11 00:07:0121
2924smartphone13322024-06-28 00:07:0121
2885nintendo switch konsole8532024-07-14 00:07:0121
2870lavastein gasgrill1692024-07-01 00:07:0121
2788aktenvernichter14732024-07-09 00:07:0121
2783Fahrrad11682024-07-02 00:07:0221
2752autobatterie11262024-06-27 00:07:0120
2743bose12372024-07-11 00:07:0122
2740samsung galaxy s66262024-06-10 00:07:0121
2701e-bike13312024-07-10 00:07:0121
2694fritz box 75903332024-07-15 00:07:0121
2678gameboy advance sp3252024-06-07 00:07:0121
2668galaxy s86602024-07-04 00:07:0121
2666personenwaage12982024-06-23 00:07:0121
2641avm 75904042024-06-21 00:07:0121
2624drehmomentschlüssel13222024-06-30 00:07:0121
2622handy ohne vertrag5752024-07-13 00:07:0221
2602dolce gusto9022024-07-01 00:07:0121
2573ipad air12452024-06-24 00:07:0121
2572winterreifen13892024-07-11 00:07:0120
2569grill15972024-06-15 00:07:0121
2511werkbank13062024-06-13 00:07:0219
2511macbook air10582024-07-16 00:07:0121
2474weber gasgrill7742024-06-26 00:07:0121
2461kitchenaid artisan10022024-06-27 00:07:0121
2397carport12272024-06-30 00:07:0121
2388sackkarre11962024-07-11 00:07:0121
2380oral b13142024-07-12 00:07:0121
2379wärmepumpentrockner10832024-06-20 00:07:0121
2374playstation 510342024-06-11 00:07:0121
2355spiegelschrank13412024-07-02 00:07:0221
2345jbl charge 31562024-07-06 00:07:0121
2307wärmebildkamera11352024-07-12 00:07:0121
2294werkzeugkoffer12392024-06-10 00:07:0121
2293kärcher hochdruckreiniger11182024-06-24 00:07:0121
2278rtx 308010532024-06-13 00:07:0221
2269samsung galaxy s108242024-06-18 00:07:0121
2250dab radio13642024-06-20 00:07:0121
2249philips sonicare11442024-07-11 00:07:0121
2235swopper1692024-06-24 00:07:0121
2227kindle paperwhite4412024-07-08 00:07:0121
2215drucker14572024-06-14 00:07:0121
2201dampfreiniger11822024-06-18 00:07:0121
2178kettensäge13152024-06-17 00:07:0121
2167airpods pro9392024-07-15 00:07:0121
2137iphone 88382024-07-05 00:07:0121
2129mülltonnenbox13642024-07-04 00:07:0121
2066levis 5018872024-06-17 00:07:0166
2031huawei p30 pro4512024-07-07 00:07:0121
2029motorsense9272024-07-01 00:07:0121
2024faltrad8032024-06-11 00:07:0121
1962sodastream crystal 2.01122024-07-01 00:07:0121
1961adidas samba10832024-07-14 00:07:0121
1944soundbar13122024-06-26 00:07:0121
1929fritz dect 3012572024-07-05 00:07:0121
1908induktionskochplatte7222024-06-25 00:07:0121
1898festplatte14112024-07-11 00:07:0121
1872schubkarre13712024-06-13 00:07:0221
1858bite away2092024-07-04 00:07:0121
1857hebeanlage8682024-07-03 00:07:0221
1851dyson v84702024-06-23 00:07:0121
1835tempur10502024-06-17 00:07:0172
1828crocs13322024-07-08 00:07:0121
1825ventilator14912024-07-08 00:07:0121
1823wasserkocher edelstahl12532024-06-08 00:07:0121
1821tolino shine2912024-07-14 00:07:0121
1817braun series 97712024-07-15 00:07:0121
1800dampfsauger1222024-06-20 00:07:0121
1796schulranzen12122024-06-25 00:07:0121
1791induktionsherd6322024-06-18 00:07:0121
1769Gerätehaus12412024-06-17 00:07:0121
1761fritz fon5332024-07-15 00:07:0121
1759heizöl8422024-07-16 00:07:0121
1754klimagerät10402024-07-03 00:07:0220
1752braun series 77172024-06-22 00:07:0121
1739partyzelt12392024-06-16 00:07:0221
1729lego star wars12872024-07-07 00:07:0121
1717ssd 1tb13952024-06-26 00:07:0121
1717iphone x8962024-06-27 00:07:0121
1713dyson v8 absolute2572024-07-01 00:07:0121
1694einbauherd8692024-06-15 00:07:0121
1688samsung galaxy a5 20172172024-07-15 00:07:0121
1687iphone 1311582024-07-11 00:07:0120
1684luftgewehr3512024-06-08 00:07:0121
1666bürostuhl12012024-06-27 00:07:0121
1657roborock s74472024-07-07 00:07:0121
1646staubsauger beutellos10932024-07-14 00:07:0121
1641hobelmaschine7082024-06-26 00:07:0121
1635apple airpods10332024-07-02 00:07:0220
1620fahrradträger10432024-07-14 00:07:0121
1614esge zauberstab6862024-06-19 00:07:0121
1614microsoft office11852024-07-14 00:07:0121
1612fleshlight7252024-06-19 00:07:0121
1609birkenstock arizona11522024-07-07 00:07:0121
1606saeco incanto3572024-07-14 00:07:0121
1593kaffeemaschine13142024-07-16 00:07:0121
1579wildkamera11902024-07-07 00:07:0121
1560geigerzähler4632024-06-30 00:07:0121
1555sd card9992024-06-27 00:07:0121
1551seilwinde11492024-06-09 00:07:0121
1550dyson v114282024-07-14 00:07:0121
1545laserdrucker12322024-06-18 00:07:0121
1542Monitor16372024-06-24 00:07:0122
1534raumthermostat12042024-06-20 00:07:0121
1533eierkocher12092024-07-05 00:07:0121
1528iphone 1210232024-06-29 00:07:0121
1525kaffeemühle13102024-06-15 00:07:0121
1524airpods10422024-06-11 00:07:0121
1522solaranlage11872024-06-14 00:07:0121
1520fahrradhelm9202024-07-01 00:07:0120
1518fritz fon c63172024-07-04 00:07:0121
1501ipad pro11352024-07-01 00:07:0121
1491chefsessel11602024-06-27 00:07:0120
1489chromecast7432024-07-06 00:07:0121
1485braun series 59112024-07-10 00:07:0121
1485mähroboter10522024-07-10 00:07:0121
1483kajak12312024-06-16 00:07:0221
1475carrera rasierer762024-07-11 00:07:0121
1437avm fritz box 75903262024-06-15 00:07:0121
1435trapezblech8782024-07-05 00:07:0121
1430samsung s98992024-06-15 00:07:0121
142675907992024-07-02 00:07:0221
1425deckenventilator12752024-07-09 00:07:0121
1409samsung galaxy a53762024-07-04 00:07:0121
1407iphone 11 pro8652024-06-12 00:07:0121
1404hdmi kabel14232024-07-10 00:07:0121
1403wobenzym2942024-06-09 00:07:0121
1401e bike13252024-07-01 00:07:0121
1393bose quietcomfort 352062024-06-16 00:07:0221
1382waffeleisen13102024-06-12 00:07:0121
1365soda stream6792024-07-16 00:07:0121
1363rucksack16002024-07-08 00:07:0121
1356tiptoi stift6602024-06-24 00:07:0121
1341wechselrichter12642024-06-13 00:07:0221
1341wlan repeater12872024-07-09 00:07:0121
1338schuhe geox10582024-06-25 00:07:0121
1335wäscheständer12402024-07-12 00:07:0120
1335cr203213462024-07-14 00:07:0121
1330samsung galaxy s208012024-06-24 00:07:0121
1327eneloop aaa7342024-06-21 00:07:0121
1320apple watch14862024-07-15 00:07:0121
1319laser entfernungsmesser11662024-06-21 00:07:0121
1311küchenwaage12042024-06-22 00:07:0120
1309ei electronics ei6503442024-07-12 00:07:0121
1306roborock s5 max1702024-07-14 00:07:0121
1301scanner13642024-07-10 00:07:0121
1296ionisator8722024-07-06 00:07:0121
1294sofa14952024-06-11 00:07:0121
1291hochentaster8422024-06-20 00:07:0121
1288schwerlastregal14332024-06-24 00:07:0120
1286saugroboter11372024-06-15 00:07:0121
1286dyson airwrap3992024-07-14 00:07:0121
1282nörtershausen452024-06-24 00:07:0121
1281wanduhr14252024-06-14 00:07:0121
1274fire tv stick4022024-06-24 00:07:0121
1269raspberry pi 39722024-06-17 00:07:0121
1262klimaanlage13522024-06-21 00:07:0121
1255zeitschaltuhr13632024-07-12 00:07:0121
1249ciclopoli2082024-07-07 00:07:0121
1247elektroroller8552024-06-30 00:07:0121
1247led tv11832024-07-06 00:07:0121
1238dvd rohlinge9382024-07-01 00:07:0121
1234balkenmäher3802024-06-20 00:07:0121
1218einkochautomat7602024-07-09 00:07:0121
1215viagra1522024-06-18 00:07:0121
1215kühl-gefrierkombination11212024-06-15 00:07:0121
1200laminiergerät13132024-06-17 00:07:0121
1199apple tv 4k4752024-06-28 00:07:0121
1197senseo kaffeemaschine3762024-07-16 00:07:0121
1194standventilator12832024-06-27 00:07:0121
1194jura e84162024-07-14 00:07:0121
1191franken whiteboard8892024-06-15 00:07:0120
1191kärcher k54932024-07-05 00:07:0121
1179bosch axt 25 tc882024-07-12 00:07:0121
1173gefriertruhe9752024-06-14 00:07:0121
1170birkenstock boston11602024-07-16 00:07:0121
1167braun series 39432024-07-13 00:07:0221
1166ipad pro 12,95402024-07-01 00:07:0120
1164birkenstock14982024-06-27 00:07:0121
1158nike air max13112024-06-16 00:07:0221
1149strong receiver3562024-06-24 00:07:0121
1143dyson v103272024-06-13 00:07:0221
1138campingstuhl13382024-07-10 00:07:0121
1134kopierpapier12462024-06-11 00:07:0121
1133barbie14352024-07-06 00:07:0121
1131geschirrspülmaschine6152024-07-10 00:07:0119
1129balkonkraftwerk12062024-07-16 00:07:0121
1127computertisch11852024-06-28 00:07:0121
1124vaude aqua back8772024-07-14 00:07:0121
1121samsonite trolley10342024-06-11 00:07:0121
1121reisenthel carrybag9892024-06-17 00:07:0121
1119norton internet security1902024-07-01 00:07:0121
1112dyson staubsauger9102024-06-19 00:07:0121
1111dji mavic pro7152024-06-18 00:07:0121
1094sandfilteranlage10012024-06-18 00:07:0121
1087hängesessel12652024-06-16 00:07:0221
1085deuter trans alpine 301882024-06-16 00:07:0221
1083powerbank12942024-06-22 00:07:0121
1083fritz 75904322024-06-27 00:07:0121
1080mini pc12802024-06-17 00:07:0121
1080avm fritz dect 2002402024-06-27 00:07:0121
1065geschirrspüler bosch11192024-06-07 00:07:0121
1065saeco kaffeevollautomat6372024-07-10 00:07:0121
1064iphone 11 pro 2562822024-07-10 00:07:0121
1058türsprechanlage13522024-07-06 00:07:0121
1047elmex gelee542024-07-10 00:07:0121
1043haarschneider11202024-06-27 00:07:0121
1041kontaktgrill11872024-07-12 00:07:0121
1041kärcher fenstersauger7842024-07-06 00:07:0121
1036fernglas11652024-06-29 00:07:0121
1031eiswürfelmaschine10592024-06-14 00:07:0121
1026abbruchhammer7892024-07-15 00:07:0121
1022playstation11672024-06-23 00:07:0121
1021seniorenhandy6082024-07-10 00:07:0123
1019bremsenreiniger8592024-07-07 00:07:0121
1016bosch akkuschrauber9202024-06-27 00:07:0121
1014test13212024-06-18 00:07:0121
1013converse chucks3232024-06-26 00:07:0121
1012dyson v10 absolute2422024-06-10 00:07:0121
1010rosenbogen12312024-06-10 00:07:0121
1009entfernungsmesser12822024-06-19 00:07:0121
1007bademantel14392024-07-05 00:07:0121
1007gardena13542024-06-11 00:07:0121
1004iphone 13 mini7092024-07-05 00:07:0121
1002isopropanol7952024-06-29 00:07:0121
1001campingaz13192024-06-08 00:07:0120
999ffp2 maske8822024-07-07 00:07:0121
999sonos one5612024-06-14 00:07:0121
990iphone 12 pro7832024-06-24 00:07:0121
986oral b aufsteckbürsten8322024-07-06 00:07:0121
984dvbt receiver542024-07-05 00:07:0120
977google pixel 7a5012024-07-13 00:07:0221
971standmixer12092024-07-11 00:07:0121
971jura reinigungstabletten6112024-06-17 00:07:0172
969apple airtag8292024-07-05 00:07:0121
96865 zoll fernseher9302024-07-05 00:07:0121
967miele geschirrspüler8812024-06-26 00:07:0121
967sony rx 1002682024-06-25 00:07:0121
966iphone se 20207282024-07-15 00:07:0121
964gaggia6742024-07-01 00:07:0121
963fliegengitter13262024-06-20 00:07:0121
962schnittschutzstiefel7542024-07-08 00:07:0121
962fritz repeater 30002752024-07-10 00:07:0121
961sauerstoffkonzentrator3522024-07-04 00:07:0120
961logitech k4004012024-06-29 00:07:0121
960leatherman wave1442024-07-13 00:07:0221
anzahl 304 xml 304


Preisvergleich
Wichtige Information zu den Preisangaben: Alle Preise verstehen sich inklusive der gesetzlichen Mehrwertsteuer und gegebebenfalls zuzüglich Versandkosten. Zum Zeitpunkt des Kaufes ist der aktuell auf der Händlerseite angegebene Preis maßgeblich. Bitte beachten Sie, dass aus technischen Gründen zeitweise Abweichungen, des Preises, der Lieferbarkeit und der Versandkosten entstehen können.

Affiliate-Offenlegung: Wenn Sie auf dieser Website auf Links zu verschiedenen Händlern klicken und einen Kauf tätigen, kann dies dazu führen, dass diese Website eine Provision erhält. Zu den Partnerprogrammen und Partnerschaften gehört unter anderem das eBay Partner Network. Als Amazon-Partner verdienen wir an qualifizierten Verkäufen.
Impressum / Datenschutzerklärung     Presse     Shops    
Copyright © 2003-2024 MetaMind GmbH